{"data":{"norad_id":62311,"intl_designator":"2024-239L","name":"STARLINK-32700","alt_names":[],"object_type":"PAYLOAD","status":"ACTIVE","operator":null,"country":"US","launch_date":"2024-12-13","launch_site_code":"AFWTR","launch_vehicle":null,"mission":null,"orbit_class":"UNKNOWN","rcs_meters":null,"size_class":null,"mass_kg":null,"dimensions":null,"purposes":["comms"],"wikipedia_slug":null,"has_3d_model":false,"image_url":null,"decayed_at":null,"tle_current":{"epoch":"2026-05-25T02:47:24.307584Z","epoch_age_seconds":68147,"freshness":"FRESH","line1":"1 62311U 24239L   26145.11625356  .00017248  00000+0  59302-3 0  9993","line2":"2 62311  53.1587 186.2496 0001345  92.3211 267.7943 15.30204694 81259","mean_motion":15.30204694,"eccentricity":0.0001345,"inclination_deg":53.1587,"raan_deg":186.2496,"arg_perigee_deg":92.3211,"mean_anomaly_deg":267.7943,"bstar":0.00059302,"rev_number":8125,"period_min":94.105057032324,"perigee_km":474.27928004899,"apogee_km":476.12282798551,"semimajor_km":6853.3380540173,"source":"CELESTRAK","updated_at":"2026-05-25T13:38:19.649137Z"}}}